| time (UTC) | temp F | wind direction | speed MPH | gust MPH | rain 1hr in | rain 24hr in | rain mn in | humidity % | barometer mb |
| 20260504050427 | 49 | 176 | 0.0 | 0.0 | 0.00 | 0.00 | 0.00 | 68 | 1018.4 |
| 20260504045924 | 49 | 176 | 0.0 | 0.0 | 0.00 | 0.00 | 0.00 | 70 | 1018.2 |
| 20260504045420 | 50 | 176 | 0.0 | 1.0 | 0.00 | 0.00 | 0.00 | 70 | 1018.2 |
| 20260504044916 | 50 | 176 | 0.0 | 0.0 | 0.00 | 0.00 | 0.00 | 66 | 1018.1 |
| 20260504044414 | 49 | 175 | 0.0 | 1.0 | 0.00 | 0.00 | 0.00 | 66 | 1017.9 |
| 20260504043911 | 49 | 175 | 0.0 | 0.0 | 0.00 | 0.00 | 0.00 | 67 | 1017.9 |
| 20260504043408 | 50 | 175 | 0.0 | 0.0 | 0.00 | 0.00 | 0.00 | 69 | 1018.0 |
| 20260504042905 | 50 | 175 | 0.0 | 0.0 | 0.00 | 0.00 | 0.00 | 66 | 1018.0 |
| 20260504042401 | 51 | 175 | 0.0 | 0.0 | 0.00 | 0.00 | 0.00 | 65 | 1018.1 |
| 20260504041858 | 52 | 175 | 0.0 | 0.0 | 0.00 | 0.00 | 0.00 | 62 | 1018.2 |
| 20260504041354 | 52 | 175 | 0.0 | 0.0 | 0.00 | 0.00 | 0.00 | 58 | 1018.2 |
| 20260504040850 | 53 | 175 | 0.0 | 0.0 | 0.00 | 0.00 | 0.00 | 57 | 1018.2 |
| 20260504040348 | 54 | 175 | 0.0 | 0.0 | 0.00 | 0.00 | 0.00 | 55 | 1018.2 |
| 20260504035843 | 54 | 175 | 0.0 | 0.0 | 0.00 | 0.00 | 0.00 | 54 | 1018.3 |
| 20260504035342 | 55 | 173 | 0.0 | 1.0 | 0.00 | 0.00 | 0.00 | 54 | 1018.3 |
| 20260504034838 | 55 | 174 | 1.0 | 1.0 | 0.00 | 0.00 | 0.00 | 54 | 1018.2 |
| 20260504034336 | 55 | 170 | 1.0 | 2.0 | 0.00 | 0.00 | 0.00 | 54 | 1018.2 |
| 20260504033832 | 55 | 203 | 1.0 | 2.0 | 0.00 | 0.00 | 0.00 | 54 | 1018.4 |
| 20260504033331 | 55 | 203 | 0.0 | 1.0 | 0.00 | 0.00 | 0.00 | 53 | 1018.2 |
| 20260504032827 | 55 | 203 | 0.0 | 1.0 | 0.00 | 0.00 | 0.00 | 53 | 1018.3 |
| 20260504032324 | 55 | 202 | 1.0 | 2.0 | 0.00 | 0.00 | 0.00 | 52 | 1018.3 |
| 20260504031821 | 55 | 217 | 1.0 | 3.0 | 0.00 | 0.00 | 0.00 | 52 | 1018.3 |
| 20260504031318 | 56 | 224 | 1.0 | 3.0 | 0.00 | 0.00 | 0.00 | 52 | 1018.1 |
| 20260504030814 | 56 | 196 | 1.0 | 2.0 | 0.00 | 0.00 | 0.00 | 51 | 1018.1 |
| 20260504030312 | 56 | 184 | 1.0 | 1.0 | 0.00 | 0.00 | 0.00 | 50 | 1018.2 |
| 20260504025808 | 57 | 193 | 0.0 | 2.0 | 0.00 | 0.00 | 0.00 | 50 | 1018.2 |
| 20260504025305 | 57 | 225 | 2.0 | 2.0 | 0.00 | 0.00 | 0.00 | 49 | 1018.1 |
| 20260504024801 | 56 | 245 | 2.0 | 4.0 | 0.00 | 0.00 | 0.00 | 50 | 1018.0 |
| 20260504024258 | 56 | 204 | 1.0 | 3.0 | 0.00 | 0.00 | 0.00 | 51 | 1017.9 |
| 20260504023755 | 56 | 186 | 1.0 | 3.0 | 0.00 | 0.00 | 0.00 | 51 | 1018.0 |
| 20260504023251 | 56 | 209 | 2.0 | 3.0 | 0.00 | 0.00 | 0.00 | 51 | 1017.8 |
| 20260504022747 | 56 | 194 | 0.0 | 1.0 | 0.00 | 0.00 | 0.00 | 51 | 1017.7 |
| 20260504022244 | 56 | 197 | 0.0 | 0.0 | 0.00 | 0.00 | 0.00 | 51 | 1017.8 |
| 20260504021741 | 57 | 197 | 0.0 | 1.0 | 0.00 | 0.00 | 0.00 | 51 | 1017.8 |
| 20260504021238 | 57 | 197 | 0.0 | 1.0 | 0.00 | 0.00 | 0.00 | 49 | 1017.7 |
| 20260504020735 | 58 | 198 | 0.0 | 1.0 | 0.00 | 0.00 | 0.00 | 48 | 1017.6 |
| 20260504020231 | 59 | 288 | 0.0 | 0.0 | 0.00 | 0.00 | 0.00 | 47 | 1017.8 |
| 20260504015728 | 59 | 288 | 1.0 | 2.0 | 0.00 | 0.00 | 0.00 | 43 | 1017.7 |
| 20260504015224 | 60 | 245 | 2.0 | 2.0 | 0.00 | 0.00 | 0.00 | 43 | 1017.5 |
| 20260504014720 | 60 | 194 | 1.0 | 3.0 | 0.00 | 0.00 | 0.00 | 43 | 1017.2 |
| 20260504014217 | 60 | 233 | 3.0 | 4.0 | 0.00 | 0.00 | 0.00 | 43 | 1017.2 |
| 20260504013715 | 60 | 189 | 3.0 | 4.0 | 0.00 | 0.00 | 0.00 | 43 | 1017.1 |
| 20260504013212 | 60 | 187 | 3.0 | 4.0 | 0.00 | 0.00 | 0.00 | 43 | 1016.9 |
| 20260504012708 | 60 | 210 | 2.0 | 2.0 | 0.00 | 0.00 | 0.00 | 43 | 1017.2 |
| 20260504012206 | 61 | 206 | 1.0 | 2.0 | 0.00 | 0.00 | 0.00 | 44 | 1017.0 |
| 20260504011703 | 61 | 222 | 2.0 | 3.0 | 0.00 | 0.00 | 0.00 | 42 | 1017.0 |
| 20260504011159 | 61 | 242 | 3.0 | 4.0 | 0.00 | 0.00 | 0.00 | 42 | 1016.8 |
| 20260504010655 | 61 | 183 | 2.0 | 7.0 | 0.00 | 0.00 | 0.00 | 42 | 1016.9 |
| 20260504010151 | 61 | 193 | 1.0 | 2.0 | 0.00 | 0.00 | 0.00 | 42 | 1017.0 |
| 20260504005648 | 61 | 183 | 2.0 | 3.0 | 0.00 | 0.00 | 0.00 | 41 | 1016.8 |
| 20260504005145 | 62 | 170 | 1.0 | 1.0 | 0.00 | 0.00 | 0.00 | 42 | 1016.8 |
| 20260504004643 | 62 | 215 | 1.0 | 3.0 | 0.00 | 0.00 | 0.00 | 42 | 1016.8 |
| 20260504004140 | 62 | 193 | 1.0 | 4.0 | 0.00 | 0.00 | 0.00 | 41 | 1016.6 |
| 20260504003636 | 63 | 225 | 3.0 | 4.0 | 0.00 | 0.00 | 0.00 | 41 | 1016.6 |
| 20260504003133 | 63 | 163 | 2.0 | 4.0 | 0.00 | 0.00 | 0.00 | 40 | 1016.8 |
| 20260504002630 | 64 | 208 | 2.0 | 6.0 | 0.00 | 0.00 | 0.00 | 39 | 1016.5 |
| 20260504002127 | 64 | 177 | 1.0 | 4.0 | 0.00 | 0.00 | 0.00 | 38 | 1016.7 |
| 20260504001625 | 64 | 176 | 3.0 | 4.0 | 0.00 | 0.00 | 0.00 | 38 | 1016.2 |
| 20260504001121 | 64 | 184 | 1.0 | 4.0 | 0.00 | 0.00 | 0.00 | 38 | 1016.3 |
| 20260504000619 | 65 | 229 | 3.0 | 4.0 | 0.00 | 0.00 | 0.00 | 38 | 1016.3 |
| 20260504000116 | 65 | 193 | 2.0 | 4.0 | 0.00 | 0.00 | 0.00 | 37 | 1016.2 |
| 20260503235614 | 66 | 233 | 2.0 | 4.0 | 0.00 | 0.00 | 0.00 | 36 | 1016.0 |
| 20260503235110 | 66 | 233 | 3.0 | 4.0 | 0.00 | 0.00 | 0.00 | 36 | 1016.1 |
| 20260503234608 | 67 | 173 | 1.0 | 4.0 | 0.00 | 0.00 | 0.00 | 36 | 1016.1 |
| 20260503234106 | 67 | 184 | 1.0 | 3.0 | 0.00 | 0.00 | 0.00 | 34 | 1016.2 |
| 20260503233603 | 68 | 239 | 6.0 | 8.0 | 0.00 | 0.00 | 0.00 | 33 | 1016.1 |
| 20260503233058 | 68 | 236 | 3.0 | 7.0 | 0.00 | 0.00 | 0.00 | 34 | 1016.1 |
| 20260503232555 | 68 | 204 | 2.0 | 6.0 | 0.00 | 0.00 | 0.00 | 33 | 1016.1 |
| 20260503232053 | 68 | 214 | 4.0 | 4.0 | 0.00 | 0.00 | 0.00 | 33 | 1016.2 |
| 20260503231551 | 68 | 181 | 2.0 | 4.0 | 0.00 | 0.00 | 0.00 | 33 | 1016.2 |
| 20260503231047 | 69 | 242 | 6.0 | 9.0 | 0.00 | 0.00 | 0.00 | 33 | 1016.2 |
| 20260503230544 | 69 | 189 | 3.0 | 6.0 | 0.00 | 0.00 | 0.00 | 33 | 1016.3 |
| 20260503230041 | 69 | 160 | 4.0 | 7.0 | 0.00 | 0.00 | 0.00 | 33 | 1016.2 |
| 20260503225538 | 69 | 197 | 2.0 | 6.0 | 0.00 | 0.00 | 0.00 | 33 | 1016.3 |
| 20260503225033 | 70 | 223 | 4.0 | 6.0 | 0.00 | 0.00 | 0.00 | 33 | 1016.2 |
| 20260503224531 | 70 | 178 | 2.0 | 4.0 | 0.00 | 0.00 | 0.00 | 33 | 1016.3 |
| 20260503224028 | 70 | 267 | 6.0 | 7.0 | 0.00 | 0.00 | 0.00 | 32 | 1016.2 |
| 20260503223526 | 70 | 170 | 1.0 | 8.0 | 0.00 | 0.00 | 0.00 | 33 | 1016.2 |
| 20260503223021 | 70 | 229 | 3.0 | 8.0 | 0.00 | 0.00 | 0.00 | 33 | 1016.2 |
| 20260503222520 | 70 | 245 | 8.0 | 10.0 | 0.00 | 0.00 | 0.00 | 32 | 1016.3 |
| 20260503222018 | 70 | 167 | 3.0 | 4.0 | 0.00 | 0.00 | 0.00 | 33 | 1016.3 |
| 20260503221515 | 71 | 250 | 7.0 | 9.0 | 0.00 | 0.00 | 0.00 | 31 | 1016.2 |
| 20260503221013 | 71 | 228 | 4.0 | 6.0 | 0.00 | 0.00 | 0.00 | 32 | 1016.3 |
| 20260503220508 | 71 | 183 | 4.0 | 6.0 | 0.00 | 0.00 | 0.00 | 32 | 1016.3 |
| 20260503220005 | 71 | 215 | 5.0 | 8.0 | 0.00 | 0.00 | 0.00 | 31 | 1016.3 |
| 20260503215503 | 71 | 211 | 1.0 | 6.0 | 0.00 | 0.00 | 0.00 | 28 | 1016.7 |
| 20260503215000 | 71 | 221 | 3.0 | 4.0 | 0.00 | 0.00 | 0.00 | 30 | 1016.6 |
| 20260503214458 | 71 | 177 | 5.0 | 7.0 | 0.00 | 0.00 | 0.00 | 30 | 1016.6 |
| 20260503213955 | 71 | 224 | 5.0 | 7.0 | 0.00 | 0.00 | 0.00 | 29 | 1016.7 |
| 20260503213453 | 71 | 229 | 2.0 | 8.0 | 0.00 | 0.00 | 0.00 | 28 | 1016.6 |
| 20260503212949 | 71 | 219 | 5.0 | 9.0 | 0.00 | 0.00 | 0.00 | 28 | 1016.6 |
| 20260503212446 | 71 | 170 | 0.0 | 4.0 | 0.00 | 0.00 | 0.00 | 28 | 1016.6 |
| 20260503211943 | 71 | 250 | 9.0 | 10.0 | 0.00 | 0.00 | 0.00 | 25 | 1016.7 |
| 20260503211441 | 71 | 196 | 3.0 | 4.0 | 0.00 | 0.00 | 0.00 | 25 | 1016.7 |
| 20260503210936 | 71 | 202 | 6.0 | 7.0 | 0.00 | 0.00 | 0.00 | 26 | 1016.7 |
| 20260503210433 | 71 | 232 | 6.0 | 8.0 | 0.00 | 0.00 | 0.00 | 26 | 1017.0 |
| 20260503205928 | 71 | 270 | 2.0 | 6.0 | 0.00 | 0.00 | 0.00 | 26 | 1016.9 |
| 20260503205425 | 71 | 216 | 4.0 | 7.0 | 0.00 | 0.00 | 0.00 | 27 | 1016.9 |
| 20260503204921 | 72 | 280 | 5.0 | 8.0 | 0.00 | 0.00 | 0.00 | 27 | 1016.9 |
| 20260503204419 | 71 | 245 | 5.0 | 7.0 | 0.00 | 0.00 | 0.00 | 28 | 1017.1 |
| 20260503203916 | 70 | 204 | 2.0 | 4.0 | 0.00 | 0.00 | 0.00 | 27 | 1017.1 |
| 20260503203413 | 71 | 291 | 6.0 | 11.0 | 0.00 | 0.00 | 0.00 | 28 | 1017.2 |
| 20260503202910 | 71 | 214 | 4.0 | 7.0 | 0.00 | 0.00 | 0.00 | 28 | 1017.3 |
| 20260503202408 | 71 | 218 | 2.0 | 6.0 | 0.00 | 0.00 | 0.00 | 28 | 1017.4 |
| 20260503201906 | 71 | 231 | 3.0 | 4.0 | 0.00 | 0.00 | 0.00 | 28 | 1017.5 |
| 20260503201403 | 70 | 226 | 5.0 | 9.0 | 0.00 | 0.00 | 0.00 | 28 | 1017.5 |
| 20260503200901 | 70 | 223 | 5.0 | 10.0 | 0.00 | 0.00 | 0.00 | 30 | 1017.7 |
| 20260503200356 | 69 | 208 | 5.0 | 11.0 | 0.00 | 0.00 | 0.00 | 31 | 1017.9 |
| 20260503195854 | 69 | 229 | 4.0 | 4.0 | 0.00 | 0.00 | 0.00 | 30 | 1017.8 |
| 20260503195350 | 70 | 230 | 5.0 | 6.0 | 0.00 | 0.00 | 0.00 | 30 | 1017.9 |
| 20260503194847 | 69 | 306 | 4.0 | 9.0 | 0.00 | 0.00 | 0.00 | 31 | 1018.2 |
| 20260503194343 | 70 | 289 | 5.0 | 10.0 | 0.00 | 0.00 | 0.00 | 31 | 1018.0 |
| 20260503193840 | 70 | 176 | 3.0 | 4.0 | 0.00 | 0.00 | 0.00 | 30 | 1018.2 |
| 20260503193335 | 69 | 230 | 3.0 | 6.0 | 0.00 | 0.00 | 0.00 | 33 | 1018.1 |
| 20260503192831 | 69 | 243 | 4.0 | 7.0 | 0.00 | 0.00 | 0.00 | 33 | 1018.3 |
| 20260503192327 | 69 | 217 | 2.0 | 3.0 | 0.00 | 0.00 | 0.00 | 32 | 1018.5 |
| 20260503191824 | 69 | 243 | 2.0 | 7.0 | 0.00 | 0.00 | 0.00 | 29 | 1018.6 |
| 20260503191321 | 68 | 155 | 3.0 | 7.0 | 0.00 | 0.00 | 0.00 | 31 | 1018.7 |
| 20260503190817 | 69 | 212 | 4.0 | 6.0 | 0.00 | 0.00 | 0.00 | 34 | 1018.8 |
| 20260503190314 | 68 | 185 | 6.0 | 9.0 | 0.00 | 0.00 | 0.00 | 33 | 1018.8 |
| 20260503185811 | 68 | 165 | 4.0 | 11.0 | 0.00 | 0.00 | 0.00 | 34 | 1019.0 |
| 20260503185308 | 68 | 112 | 4.0 | 7.0 | 0.00 | 0.00 | 0.00 | 32 | 1018.9 |
| 20260503184807 | 68 | 227 | 4.0 | 6.0 | 0.00 | 0.00 | 0.00 | 32 | 1018.8 |
| 20260503184304 | 67 | 130 | 2.0 | 3.0 | 0.00 | 0.00 | 0.00 | 35 | 1019.1 |
| 20260503183800 | 67 | 168 | 5.0 | 7.0 | 0.00 | 0.00 | 0.00 | 36 | 1019.0 |
| 20260503183257 | 67 | 194 | 4.0 | 7.0 | 0.00 | 0.00 | 0.00 | 35 | 1019.2 |
| 20260503182755 | 67 | 139 | 2.0 | 6.0 | 0.00 | 0.00 | 0.00 | 35 | 1019.1 |
| 20260503182254 | 68 | 111 | 2.0 | 6.0 | 0.00 | 0.00 | 0.00 | 35 | 1019.1 |
| 20260503181750 | 68 | 192 | 6.0 | 7.0 | 0.00 | 0.00 | 0.00 | 34 | 1019.4 |
| 20260503181247 | 67 | 194 | 2.0 | 9.0 | 0.00 | 0.00 | 0.00 | 38 | 1019.5 |
| 20260503180743 | 67 | 59 | 2.0 | 4.0 | 0.00 | 0.00 | 0.00 | 36 | 1019.1 |
| 20260503180242 | 67 | 178 | 4.0 | 8.0 | 0.00 | 0.00 | 0.00 | 38 | 1019.4 |
| 20260503175738 | 67 | 168 | 4.0 | 6.0 | 0.00 | 0.00 | 0.00 | 33 | 1019.3 |
| 20260503175236 | 66 | 184 | 5.0 | 8.0 | 0.00 | 0.00 | 0.00 | 34 | 1019.6 |
| 20260503174732 | 65 | 149 | 2.0 | 3.0 | 0.00 | 0.00 | 0.00 | 36 | 1019.5 |
| 20260503174230 | 66 | 141 | 2.0 | 7.0 | 0.00 | 0.00 | 0.00 | 37 | 1019.6 |
| 20260503173730 | 66 | 124 | 5.0 | 6.0 | 0.00 | 0.00 | 0.00 | 35 | 1019.6 |
| 20260503173226 | 66 | 177 | 4.0 | 4.0 | 0.00 | 0.00 | 0.00 | 38 | 1019.6 |
| 20260503172724 | 65 | 91 | 3.0 | 4.0 | 0.00 | 0.00 | 0.00 | 37 | 1019.7 |
| 20260503172221 | 66 | 143 | 6.0 | 8.0 | 0.00 | 0.00 | 0.00 | 36 | 1019.7 |
| 20260503171717 | 65 | 150 | 0.0 | 3.0 | 0.00 | 0.00 | 0.00 | 38 | 1019.8 |
| 20260503171214 | 65 | 234 | 6.0 | 10.0 | 0.00 | 0.00 | 0.00 | 35 | 1019.8 |
| 20260503170711 | 65 | 213 | 7.0 | 8.0 | 0.00 | 0.00 | 0.00 | 37 | 1019.9 |
| 20260503170208 | 65 | 148 | 2.0 | 4.0 | 0.00 | 0.00 | 0.00 | 39 | 1020.0 |
| 20260503160130 | 62 | 154 | 0.0 | 2.0 | 0.00 | 0.00 | 0.00 | 43 | 1020.9 |
| 20260503150600 | 60 | 139 | 0.0 | 2.0 | 0.00 | 0.00 | 0.00 | 46 | 1021.2 |
| 20260503130949 | 52 | 104 | 1.0 | 1.0 | 0.00 | 0.00 | 0.00 | 69 | 1020.8 |
| 20260503130447 | 51 | 139 | 0.0 | 1.0 | 0.00 | 0.00 | 0.00 | 70 | 1020.9 |
| 20260503110344 | 38 | 171 | 0.0 | 0.0 | 0.00 | 0.00 | 0.00 | 97 | 1019.7 |
| 20260503090235 | 39 | 172 | 0.0 | 0.0 | 0.00 | 0.00 | 0.00 | 96 | 1018.6 |
| 20260503081202 | 39 | 172 | 0.0 | 0.0 | 0.00 | 0.00 | 0.00 | 95 | 1018.4 |
| 20260503080658 | 40 | 172 | 0.0 | 0.0 | 0.00 | 0.00 | 0.00 | 95 | 1018.4 |
| 20260503080155 | 40 | 172 | 0.0 | 0.0 | 0.00 | 0.00 | 0.00 | 95 | 1018.2 |
| 20260503072632 | 41 | 172 | 0.0 | 0.0 | 0.00 | 0.00 | 0.00 | 96 | 1017.7 |
| 20260503072128 | 40 | 172 | 0.0 | 0.0 | 0.00 | 0.00 | 0.00 | 96 | 1017.6 |
| 20260503071625 | 40 | 172 | 0.0 | 0.0 | 0.00 | 0.00 | 0.00 | 96 | 1017.8 |
| 20260503071122 | 40 | 172 | 0.0 | 0.0 | 0.00 | 0.00 | 0.00 | 95 | 1017.5 |
| 20260503070619 | 40 | 172 | 0.0 | 0.0 | 0.00 | 0.00 | 0.00 | 95 | 1017.5 |
| 20260503070117 | 41 | 172 | 0.0 | 0.0 | 0.00 | 0.00 | 0.00 | 95 | 1017.5 |